^^
Your Local Weather - Clay, NY Station Historical Data
Daily Summary for January 30, 2018 Units:  Metric    English   Both
« Previous Day
Next Day »
Daily Weekly Monthly Yearly Custom
  High: Low: Average:
Temperature: -4.2 °C -9.7 °C -7.1 °C
Dew Point: -6.7 °C -11.6 °C -9.2 °C
Humidity: 89% 75% 85%
Wind Speed: 9.7km/h 0km/h 4.2km/h
Wind Gust: 16.1km/h - -
Wind- - WNW
Pressure: 1024.3 hPa 1014.8 hPa -
Precipitation: 0 mm    
Historical Graphs
 
 
Tabular Data for January 30, 2018
Time Temperature Dew Point Pressure Wind Wind Speed Wind Gust Humidity Rainfall Rate (Hourly) solar
00:04 -4.2 °C -6.7 °C 1016.5 hPa Calm     83% 0 mm 0 W/m2
00:10 -4.3 °C -6.8 °C 1016.5 hPa Calm     83% 0 mm 0 W/m2
00:16 -4.4 °C -6.9 °C 1016.1 hPa Calm     83% 0 mm 0 W/m2
00:22 -4.6 °C -7 °C 1016.1 hPa Calm     83% 0 mm 0 W/m2
00:28 -4.6 °C -6.9 °C 1016.1 hPa Calm     84% 0 mm 0 W/m2
00:34 -4.7 °C -6.9 °C 1016.1 hPa Calm     84% 0 mm 0 W/m2
00:40 -4.7 °C -6.8 °C 1015.8 hPa Calm     85% 0 mm 0 W/m2
00:46 -4.7 °C -6.8 °C 1015.8 hPa Calm     85% 0 mm 0 W/m2
00:52 -4.8 °C -6.9 °C 1015.8 hPa Calm     85% 0 mm 0 W/m2
00:58 -4.8 °C -6.9 °C 1015.8 hPa Calm     85% 0 mm 0 W/m2
01:04 -4.8 °C -6.9 °C 1015.5 hPa Calm   1.6 km/h 85% 0 mm 0 W/m2
01:10 -4.9 °C -7 °C 1015.5 hPa Calm     85% 0 mm 0 W/m2
01:16 -4.9 °C -7 °C 1015.5 hPa Calm     85% 0 mm 0 W/m2
01:22 -4.9 °C -7 °C 1015.1 hPa Calm     85% 0 mm 0 W/m2
01:28 -4.9 °C -7 °C 1015.1 hPa Calm     85% 0 mm 0 W/m2
01:34 -4.9 °C -7 °C 1015.1 hPa Calm     85% 0 mm 0 W/m2
01:40 -4.9 °C -7 °C 1015.1 hPa Calm     85% 0 mm 0 W/m2
01:46 -4.9 °C -7 °C 1015.1 hPa Calm     85% 0 mm 0 W/m2
01:52 -4.9 °C -7.1 °C 1015.5 hPa Calm     85% 0 mm 0 W/m2
01:58 -4.9 °C -7.1 °C 1015.5 hPa Calm   1.6 km/h 85% 0 mm 0 W/m2
02:04 -4.9 °C -7.1 °C 1015.5 hPa Calm     85% 0 mm 0 W/m2
02:10 -5 °C -7.1 °C 1015.5 hPa Calm     85% 0 mm 0 W/m2
02:16 -5 °C -7.1 °C 1015.5 hPa Calm     85% 0 mm 0 W/m2
02:22 -5.1 °C -7.2 °C 1015.5 hPa Calm     85% 0 mm 0 W/m2
02:28 -5.1 °C -7.2 °C 1015.5 hPa Calm     85% 0 mm 0 W/m2
02:34 -5.1 °C -7.2 °C 1015.1 hPa Calm     85% 0 mm 0 W/m2
02:40 -5.1 °C -7.2 °C 1015.1 hPa Calm     85% 0 mm 0 W/m2
02:46 -5.1 °C -7.2 °C 1015.1 hPa Calm   1.6 km/h 85% 0 mm 0 W/m2
02:52 -5.1 °C -7.2 °C 1015.1 hPa Calm     85% 0 mm 0 W/m2
02:58 -5.1 °C -7.2 °C 1015.1 hPa Calm     85% 0 mm 0 W/m2
03:04 -5.1 °C -7.2 °C 1014.8 hPa Calm   1.6 km/h 85% 0 mm 0 W/m2
03:10 -5.1 °C -7.2 °C 1014.8 hPa NNW 1.6 km/h 1.6 km/h 85% 0 mm 0 W/m2
03:16 -5.1 °C -7.2 °C 1014.8 hPa NNW 1.6 km/h 3.2 km/h 85% 0 mm 0 W/m2
03:22 -5.1 °C -7.2 °C 1014.8 hPa Calm   1.6 km/h 85% 0 mm 0 W/m2
03:28 -5.1 °C -7.2 °C 1014.8 hPa Calm   1.6 km/h 85% 0 mm 0 W/m2
03:34 -5.1 °C -7.2 °C 1014.8 hPa Calm   1.6 km/h 85% 0 mm 0 W/m2
03:40 -5.1 °C -7.2 °C 1014.8 hPa Calm   3.2 km/h 85% 0 mm 0 W/m2
03:46 -5.1 °C -7.2 °C 1014.8 hPa NNW 1.6 km/h 3.2 km/h 85% 0 mm 0 W/m2
03:52 -5.1 °C -7.2 °C 1015.1 hPa NNW 1.6 km/h 3.2 km/h 85% 0 mm 0 W/m2
03:58 -5.1 °C -7.2 °C 1015.1 hPa NNW 1.6 km/h 3.2 km/h 85% 0 mm 0 W/m2
04:04 -5.2 °C -7.3 °C 1015.1 hPa NNW 1.6 km/h 1.6 km/h 85% 0 mm 0 W/m2
04:10 -5.2 °C -7.2 °C 1015.1 hPa Calm     86% 0 mm 0 W/m2
04:16 -5.2 °C -7.2 °C 1015.1 hPa NNW 1.6 km/h 1.6 km/h 86% 0 mm 0 W/m2
04:22 -5.3 °C -7.3 °C 1015.1 hPa NNW 1.6 km/h 1.6 km/h 86% 0 mm 0 W/m2
04:28 -5.3 °C -7.3 °C 1015.1 hPa NNW 1.6 km/h 4.8 km/h 86% 0 mm 0 W/m2
04:34 -5.4 °C -7.4 °C 1015.1 hPa WNW 3.2 km/h 3.2 km/h 86% 0 mm 0 W/m2
04:40 -5.4 °C -7.4 °C 1015.1 hPa WNW 3.2 km/h 3.2 km/h 86% 0 mm 0 W/m2
04:46 -5.4 °C -7.4 °C 1015.1 hPa WNW 1.6 km/h 4.8 km/h 86% 0 mm 0 W/m2
04:52 -5.4 °C -7.4 °C 1015.5 hPa WNW 3.2 km/h 6.4 km/h 86% 0 mm 0 W/m2
04:58 -5.4 °C -7.4 °C 1015.5 hPa WNW 3.2 km/h 6.4 km/h 86% 0 mm 0 W/m2
05:04 -5.4 °C -7.4 °C 1015.5 hPa WNW 3.2 km/h 4.8 km/h 86% 0 mm 0 W/m2
05:10 -5.5 °C -7.4 °C 1015.8 hPa WNW 3.2 km/h 3.2 km/h 86% 0 mm 0 W/m2
05:16 -5.6 °C -7.5 °C 1015.8 hPa WNW 3.2 km/h 3.2 km/h 86% 0 mm 0 W/m2
05:22 -5.7 °C -7.6 °C 1015.8 hPa WNW 3.2 km/h 4.8 km/h 86% 0 mm 0 W/m2
05:28 -5.8 °C -7.7 °C 1015.8 hPa WNW 3.2 km/h 4.8 km/h 86% 0 mm 0 W/m2
05:34 -5.8 °C -7.8 °C 1015.8 hPa WNW 3.2 km/h 4.8 km/h 86% 0 mm 0 W/m2
05:40 -5.9 °C -7.7 °C 1015.8 hPa WNW 3.2 km/h 3.2 km/h 87% 0 mm 0 W/m2
05:46 -5.9 °C -7.7 °C 1016.1 hPa WNW 1.6 km/h 3.2 km/h 87% 0 mm 0 W/m2
05:52 -5.9 °C -7.7 °C 1016.1 hPa WNW 1.6 km/h 3.2 km/h 87% 0 mm 0 W/m2
05:58 -5.9 °C -7.7 °C 1016.1 hPa West 1.6 km/h 4.8 km/h 87% 0 mm 0 W/m2
06:04 -5.9 °C -7.8 °C 1016.1 hPa West 1.6 km/h 1.6 km/h 87% 0 mm 0 W/m2
06:10 -6.1 °C -7.9 °C 1016.1 hPa West 1.6 km/h 1.6 km/h 87% 0 mm 0 W/m2
06:16 -6.2 °C -8 °C 1016.1 hPa West 1.6 km/h 3.2 km/h 87% 0 mm 0 W/m2
06:22 -6.2 °C -7.8 °C 1016.5 hPa West 1.6 km/h 1.6 km/h 88% 0 mm 0 W/m2
06:28 -6.2 °C -7.9 °C 1016.5 hPa West 1.6 km/h 4.8 km/h 88% 0 mm 0 W/m2
06:34 -6.3 °C -7.9 °C 1016.5 hPa WNW 3.2 km/h 4.8 km/h 88% 0 mm 0 W/m2
06:40 -6.3 °C -7.9 °C 1016.8 hPa WNW 3.2 km/h 3.2 km/h 88% 0 mm 0 W/m2
06:46 -6.3 °C -8 °C 1016.8 hPa WNW 1.6 km/h 4.8 km/h 88% 0 mm 0 W/m2
06:52 -6.3 °C -8 °C 1016.8 hPa WNW 3.2 km/h 3.2 km/h 88% 0 mm 0 W/m2
06:58 -6.4 °C -8.1 °C 1016.8 hPa West 3.2 km/h 8 km/h 88% 0 mm 0 W/m2
07:04 -6.6 °C -8.2 °C 1016.8 hPa WNW 4.8 km/h 9.7 km/h 88% 0 mm 0 W/m2
07:10 -6.7 °C -8.3 °C 1016.8 hPa WNW 4.8 km/h 6.4 km/h 88% 0 mm 0 W/m2
07:16 -6.7 °C -8.2 °C 1017.2 hPa WNW 6.4 km/h 9.7 km/h 89% 0 mm 0 W/m2
07:22 -6.7 °C -8.2 °C 1017.2 hPa WNW 4.8 km/h 6.4 km/h 89% 0 mm 0 W/m2
07:28 -6.7 °C -8.2 °C 1017.2 hPa WNW 3.2 km/h 6.4 km/h 89% 0 mm 0 W/m2
07:34 -6.7 °C -8.2 °C 1017.5 hPa WNW 3.2 km/h 8 km/h 89% 0 mm 0 W/m2
07:40 -6.8 °C -8.3 °C 1017.5 hPa NW 4.8 km/h 4.8 km/h 89% 0 mm 5 W/m2
07:46 -6.8 °C -8.3 °C 1017.5 hPa WNW 4.8 km/h 4.8 km/h 89% 0 mm 9 W/m2
07:52 -6.9 °C -8.4 °C 1017.5 hPa WNW 4.8 km/h 9.7 km/h 89% 0 mm 11 W/m2
07:58 -7 °C -8.5 °C 1017.8 hPa WNW 4.8 km/h 9.7 km/h 89% 0 mm 14 W/m2
08:04 -7.1 °C -8.6 °C 1017.8 hPa NW 4.8 km/h 6.4 km/h 89% 0 mm 21 W/m2
08:10 -7.1 °C -8.6 °C 1017.8 hPa WNW 4.8 km/h 6.4 km/h 89% 0 mm 32 W/m2
08:16 -7.1 °C -8.6 °C 1017.8 hPa NW 3.2 km/h 6.4 km/h 89% 0 mm 35 W/m2
08:22 -7.1 °C -8.6 °C 1018.2 hPa WNW 4.8 km/h 6.4 km/h 89% 0 mm 39 W/m2
08:28 -7.1 °C -8.6 °C 1018.2 hPa NW 4.8 km/h 8 km/h 89% 0 mm 37 W/m2
08:34 -7.2 °C -8.7 °C 1018.2 hPa WNW 4.8 km/h 8 km/h 89% 0 mm 44 W/m2
08:40 -7.4 °C -9.1 °C 1018.5 hPa WNW 9.7 km/h 9.7 km/h 88% 0 mm 53 W/m2
08:46 -7.5 °C -9.2 °C 1018.5 hPa NW 9.7 km/h 12.9 km/h 88% 0 mm 53 W/m2
08:52 -7.4 °C -9.2 °C 1018.5 hPa WNW 8 km/h 9.7 km/h 87% 0 mm 56 W/m2
08:58 -7.4 °C -9.2 °C 1018.5 hPa NNW 6.4 km/h 9.7 km/h 87% 0 mm 53 W/m2
09:04 -7.4 °C -9.2 °C 1018.5 hPa NW 4.8 km/h 11.3 km/h 87% 0 mm 54 W/m2
09:10 -7.4 °C -9.2 °C 1018.8 hPa WNW 6.4 km/h 12.9 km/h 87% 0 mm 60 W/m2
09:16 -7.3 °C -9.1 °C 1018.8 hPa WNW 6.4 km/h 12.9 km/h 87% 0 mm 67 W/m2
09:22 -7.3 °C -9.1 °C 1018.8 hPa WNW 6.4 km/h 9.7 km/h 87% 0 mm 70 W/m2
09:28 -7.3 °C -9.1 °C 1018.8 hPa NW 6.4 km/h 11.3 km/h 87% 0 mm 70 W/m2
09:34 -7.3 °C -9.1 °C 1018.8 hPa WNW 6.4 km/h 6.4 km/h 87% 0 mm 70 W/m2
09:40 -7.3 °C -9.3 °C 1019.2 hPa WNW 6.4 km/h 11.3 km/h 86% 0 mm 88 W/m2
09:46 -7.3 °C -9.3 °C 1019.2 hPa WNW 6.4 km/h 14.5 km/h 86% 0 mm 100 W/m2
09:52 -7.3 °C -9.3 °C 1019.5 hPa WNW 6.4 km/h 6.4 km/h 86% 0 mm 113 W/m2
09:58 -7.3 °C -9.4 °C 1019.5 hPa WNW 6.4 km/h 11.3 km/h 85% 0 mm 116 W/m2
10:04 -7.3 °C -9.4 °C 1019.5 hPa NW 8 km/h 8 km/h 85% 0 mm 121 W/m2
10:10 -7.3 °C -9.5 °C 1019.5 hPa WNW 6.4 km/h 11.3 km/h 84% 0 mm 113 W/m2
10:16 -7.4 °C -9.8 °C 1019.5 hPa WNW 8 km/h 11.3 km/h 83% 0 mm 104 W/m2
10:22 -7.3 °C -9.6 °C 1019.5 hPa WNW 4.8 km/h 6.4 km/h 84% 0 mm 109 W/m2
10:28 -7.4 °C -9.6 °C 1019.9 hPa NW 4.8 km/h 11.3 km/h 84% 0 mm 120 W/m2
10:34 -7.5 °C -9.7 °C 1019.5 hPa NW 6.4 km/h 6.4 km/h 84% 0 mm 123 W/m2
10:40 -7.4 °C -9.7 °C 1019.9 hPa NW 6.4 km/h 6.4 km/h 84% 0 mm 127 W/m2
10:46 -7.4 °C -9.6 °C 1019.9 hPa NW 4.8 km/h 6.4 km/h 84% 0 mm 114 W/m2
10:52 -7.4 °C -9.8 °C 1019.9 hPa NW 4.8 km/h 8 km/h 83% 0 mm 120 W/m2
10:58 -7.4 °C -9.8 °C 1019.9 hPa WNW 6.4 km/h 11.3 km/h 83% 0 mm 160 W/m2
11:04 -7.4 °C -9.8 °C 1019.9 hPa NW 6.4 km/h 11.3 km/h 83% 0 mm 169 W/m2
11:10 -7.4 °C -9.8 °C 1019.9 hPa NNW 6.4 km/h 6.4 km/h 83% 0 mm 171 W/m2
11:16 -7.3 °C -9.7 °C 1019.9 hPa NW 6.4 km/h 6.4 km/h 83% 0 mm 174 W/m2
11:22 -7.3 °C -9.7 °C 1019.9 hPa NW 6.4 km/h 11.3 km/h 83% 0 mm 179 W/m2
11:28 -7.3 °C -9.9 °C 1019.9 hPa NNW 8 km/h 11.3 km/h 82% 0 mm 139 W/m2
11:34 -7.4 °C -9.8 °C 1019.9 hPa NNW 8 km/h 11.3 km/h 83% 0 mm 156 W/m2
11:40 -7.4 °C -9.8 °C 1019.9 hPa NNW 6.4 km/h 6.4 km/h 83% 0 mm 113 W/m2
11:46 -7.6 °C -9.9 °C 1019.9 hPa NW 6.4 km/h 6.4 km/h 83% 0 mm 192 W/m2
11:52 -7.4 °C -9.7 °C 1019.9 hPa WNW 6.4 km/h 6.4 km/h 84% 0 mm 262 W/m2
11:58 -7.4 °C -9.8 °C 1019.9 hPa NW 6.4 km/h 9.7 km/h 83% 0 mm 225 W/m2
12:04 -7.5 °C -9.9 °C 1019.5 hPa WNW 8 km/h 8 km/h 83% 0 mm 274 W/m2
12:10 -7.4 °C -10 °C 1019.5 hPa WNW 8 km/h 8 km/h 82% 0 mm 260 W/m2
12:16 -7.5 °C -10.1 °C 1019.5 hPa NW 8 km/h 8 km/h 82% 0 mm 237 W/m2
12:22 -7.4 °C -10 °C 1019.5 hPa WNW 6.4 km/h 11.3 km/h 82% 0 mm 229 W/m2
12:28 -7.4 °C -10.2 °C 1019.5 hPa WNW 6.4 km/h 11.3 km/h 81% 0 mm 318 W/m2
12:34 -7.4 °C -10.1 °C 1019.5 hPa WNW 6.4 km/h 8 km/h 81% 0 mm 255 W/m2
12:40 -7.4 °C -10.3 °C 1019.5 hPa WNW 6.4 km/h 16.1 km/h 80% 0 mm 251 W/m2
12:46 -7.5 °C -10.3 °C 1019.5 hPa NW 8 km/h 16.1 km/h 80% 0 mm 257 W/m2
12:52 -7.4 °C -10.4 °C 1019.2 hPa NW 8 km/h 8 km/h 79% 0 mm 362 W/m2
12:58 -7.3 °C -10.4 °C 1019.5 hPa WNW 6.4 km/h 9.7 km/h 78% 0 mm 230 W/m2
13:04 -7.3 °C -10.4 °C 1019.5 hPa North 6.4 km/h 14.5 km/h 78% 0 mm 214 W/m2
13:10 -7.6 °C -10.7 °C 1019.2 hPa WNW 8 km/h 8 km/h 78% 0 mm 250 W/m2
13:16 -7.6 °C -10.6 °C 1019.5 hPa WNW 8 km/h 11.3 km/h 79% 0 mm 262 W/m2
13:22 -7.2 °C -10.4 °C 1019.2 hPa NW 6.4 km/h 12.9 km/h 78% 0 mm 439 W/m2
13:28 -6.7 °C -10.4 °C 1019.2 hPa WNW 6.4 km/h 12.9 km/h 75% 0 mm 508 W/m2
13:34 -6.9 °C -10.4 °C 1019.5 hPa WNW 6.4 km/h 12.9 km/h 76% 0 mm 139 W/m2
13:40 -7.2 °C -10.4 °C 1019.5 hPa NW 6.4 km/h 11.3 km/h 78% 0 mm 141 W/m2
13:46 -7.6 °C -10.6 °C 1019.5 hPa NW 6.4 km/h 11.3 km/h 79% 0 mm 165 W/m2
13:52 -7.7 °C -10.5 °C 1019.5 hPa NW 8 km/h 11.3 km/h 80% 0 mm 199 W/m2
13:58 -7.6 °C -10.4 °C 1019.5 hPa NNW 6.4 km/h 11.3 km/h 80% 0 mm 211 W/m2
14:04 -7.4 °C -10.3 °C 1019.5 hPa WNW 6.4 km/h 9.7 km/h 80% 0 mm 181 W/m2
14:10 -7.4 °C -10.2 °C 1019.5 hPa NW 6.4 km/h 6.4 km/h 81% 0 mm 221 W/m2
14:16 -7.3 °C -10.2 °C 1019.5 hPa NW 6.4 km/h 9.7 km/h 80% 0 mm 213 W/m2
14:22 -7.2 °C -10.1 °C 1019.5 hPa WNW 6.4 km/h 8 km/h 80% 0 mm 255 W/m2
14:28 -7.1 °C -10 °C 1019.5 hPa WNW 6.4 km/h 8 km/h 80% 0 mm 179 W/m2
14:34 -7.2 °C -10.1 °C 1019.5 hPa NNW 6.4 km/h 8 km/h 80% 0 mm 146 W/m2
14:40 -7.1 °C -10.1 °C 1019.9 hPa NW 6.4 km/h 11.3 km/h 79% 0 mm 186 W/m2
14:46 -6.9 °C -9.8 °C 1019.9 hPa WNW 6.4 km/h 11.3 km/h 80% 0 mm 230 W/m2
14:52 -7.1 °C -10.1 °C 1019.9 hPa NNW 6.4 km/h 11.3 km/h 79% 0 mm 169 W/m2
14:58 -7.2 °C -10.2 °C 1019.9 hPa NW 6.4 km/h 11.3 km/h 79% 0 mm 118 W/m2
15:06 -7.2 °C -9.9 °C 1020.2 hPa NW 6.4 km/h 9.7 km/h 81% 0 mm 179 W/m2
15:12 -7 °C -9.7 °C 1020.2 hPa NW 6.4 km/h 8 km/h 81% 0 mm 302 W/m2
15:18 -6.9 °C -9.4 °C 1020.2 hPa NNW 4.8 km/h 14.5 km/h 82% 0 mm 229 W/m2
15:24 -7 °C -9.7 °C 1020.5 hPa NNW 6.4 km/h 12.9 km/h 81% 0 mm 244 W/m2
15:30 -6.9 °C -9.7 °C 1020.5 hPa NNW 8 km/h 8 km/h 81% 0 mm 234 W/m2
15:36 -6.9 °C -9.6 °C 1020.5 hPa WNW 6.4 km/h 8 km/h 81% 0 mm 207 W/m2
15:42 -6.9 °C -9.7 °C 1020.5 hPa WNW 6.4 km/h 6.4 km/h 81% 0 mm 111 W/m2
15:48 -7.1 °C -10 °C 1020.9 hPa WNW 4.8 km/h 6.4 km/h 80% 0 mm 95 W/m2
15:54 -7.2 °C -9.9 °C 1020.9 hPa WNW 4.8 km/h 4.8 km/h 81% 0 mm 76 W/m2
16:00 -7.2 °C -9.9 °C 1020.9 hPa WNW 4.8 km/h 4.8 km/h 81% 0 mm 53 W/m2
16:06 -7.3 °C -10.1 °C 1021.2 hPa NW 4.8 km/h 4.8 km/h 81% 0 mm 49 W/m2
16:12 -7.3 °C -9.9 °C 1021.2 hPa WNW 3.2 km/h 8 km/h 82% 0 mm 40 W/m2
16:18 -7.4 °C -10 °C 1021.2 hPa WNW 4.8 km/h 8 km/h 82% 0 mm 30 W/m2
16:24 -7.4 °C -9.8 °C 1021.2 hPa WNW 4.8 km/h 4.8 km/h 83% 0 mm 26 W/m2
16:30 -7.5 °C -9.7 °C 1021.2 hPa North 3.2 km/h 6.4 km/h 84% 0 mm 23 W/m2
16:36 -7.5 °C -9.7 °C 1021.6 hPa NW 3.2 km/h 8 km/h 84% 0 mm 30 W/m2
16:42 -7.6 °C -9.7 °C 1021.6 hPa NW 4.8 km/h 6.4 km/h 85% 0 mm 21 W/m2
16:48 -7.6 °C -9.7 °C 1021.6 hPa NW 4.8 km/h 6.4 km/h 85% 0 mm 19 W/m2
16:54 -7.5 °C -9.6 °C 1021.6 hPa NW 3.2 km/h 4.8 km/h 85% 0 mm 11 W/m2
17:00 -7.5 °C -9.6 °C 1021.6 hPa NNW 3.2 km/h 4.8 km/h 85% 0 mm 5 W/m2
17:06 -7.5 °C -9.6 °C 1021.9 hPa NW 4.8 km/h 4.8 km/h 85% 0 mm 0 W/m2
17:12 -7.4 °C -9.4 °C 1021.9 hPa NW 3.2 km/h 6.4 km/h 86% 0 mm 0 W/m2
17:18 -7.4 °C -9.4 °C 1022.2 hPa NW 3.2 km/h 6.4 km/h 86% 0 mm 0 W/m2
17:24 -7.4 °C -9.3 °C 1022.2 hPa NW 1.6 km/h 3.2 km/h 86% 0 mm 0 W/m2
17:30 -7.3 °C -9.3 °C 1022.2 hPa NW 1.6 km/h 4.8 km/h 86% 0 mm 0 W/m2
17:36 -7.3 °C -9.1 °C 1022.2 hPa NW 1.6 km/h 4.8 km/h 87% 0 mm 0 W/m2
17:42 -7.3 °C -9.1 °C 1022.6 hPa NW 1.6 km/h 1.6 km/h 87% 0 mm 0 W/m2
17:48 -7.2 °C -9 °C 1022.6 hPa NW 1.6 km/h 1.6 km/h 87% 0 mm 0 W/m2
17:54 -7.2 °C -9 °C 1022.9 hPa NW 1.6 km/h 1.6 km/h 87% 0 mm 0 W/m2
18:00 -7.2 °C -8.9 °C 1022.9 hPa NW 1.6 km/h 1.6 km/h 87% 0 mm 0 W/m2
18:06 -7.1 °C -8.9 °C 1022.9 hPa NW 3.2 km/h 4.8 km/h 87% 0 mm 0 W/m2
18:12 -7.1 °C -8.8 °C 1022.9 hPa NW 3.2 km/h 6.4 km/h 88% 0 mm 0 W/m2
18:18 -7.1 °C -8.7 °C 1022.9 hPa WNW 4.8 km/h 6.4 km/h 88% 0 mm 0 W/m2
18:24 -7.2 °C -9 °C 1023.2 hPa WNW 6.4 km/h 6.4 km/h 87% 0 mm 0 W/m2
18:30 -7.6 °C -9.3 °C 1023.2 hPa WNW 8 km/h 8 km/h 87% 0 mm 0 W/m2
18:36 -7.6 °C -9.4 °C 1023.2 hPa WSW 6.4 km/h 9.7 km/h 87% 0 mm 0 W/m2
18:42 -7.9 °C -9.7 °C 1023.2 hPa West 6.4 km/h 6.4 km/h 87% 0 mm 0 W/m2
18:48 -8.2 °C -10 °C 1023.6 hPa WNW 6.4 km/h 11.3 km/h 87% 0 mm 0 W/m2
18:54 -8.3 °C -10.1 °C 1023.6 hPa West 4.8 km/h 6.4 km/h 87% 0 mm 0 W/m2
19:00 -8.5 °C -10.3 °C 1023.2 hPa West 4.8 km/h 4.8 km/h 87% 0 mm 0 W/m2
19:06 -8.6 °C -10.4 °C 1023.6 hPa WNW 4.8 km/h 9.7 km/h 87% 0 mm 0 W/m2
19:12 -8.7 °C -10.4 °C 1023.6 hPa West 6.4 km/h 6.4 km/h 87% 0 mm 0 W/m2
19:18 -8.7 °C -10.4 °C 1023.6 hPa WSW 4.8 km/h 6.4 km/h 87% 0 mm 0 W/m2
19:24 -8.7 °C -10.5 °C 1023.6 hPa WSW 4.8 km/h 9.7 km/h 87% 0 mm 0 W/m2
19:30 -8.7 °C -10.5 °C 1023.9 hPa WNW 6.4 km/h 6.4 km/h 87% 0 mm 0 W/m2
19:36 -8.7 °C -10.7 °C 1023.9 hPa West 4.8 km/h 14.5 km/h 86% 0 mm 0 W/m2
19:42 -8.7 °C -10.7 °C 1023.9 hPa WNW 6.4 km/h 8 km/h 86% 0 mm 0 W/m2
19:48 -8.7 °C -10.7 °C 1023.9 hPa West 6.4 km/h 8 km/h 86% 0 mm 0 W/m2
19:54 -8.7 °C -10.6 °C 1023.9 hPa WSW 4.8 km/h 8 km/h 86% 0 mm 0 W/m2
20:00 -8.7 °C -10.7 °C 1023.9 hPa West 4.8 km/h 4.8 km/h 85% 0 mm 0 W/m2
20:06 -8.7 °C -10.8 °C 1023.9 hPa WSW 6.4 km/h 8 km/h 85% 0 mm 0 W/m2
20:12 -8.8 °C -10.9 °C 1023.9 hPa SW 6.4 km/h 12.9 km/h 85% 0 mm 0 W/m2
20:18 -8.8 °C -10.8 °C 1023.9 hPa WSW 8 km/h 12.9 km/h 85% 0 mm 0 W/m2
20:26 -8.8 °C -11.1 °C 1023.9 hPa West 6.4 km/h 9.7 km/h 84% 0 mm 0 W/m2
20:32 -8.9 °C -11.1 °C 1023.9 hPa WSW 6.4 km/h 6.4 km/h 84% 0 mm 0 W/m2
20:38 -8.9 °C -11.2 °C 1023.9 hPa WSW 6.4 km/h 9.7 km/h 84% 0 mm 0 W/m2
20:44 -8.9 °C -11 °C 1023.9 hPa West 8 km/h 11.3 km/h 85% 0 mm 0 W/m2
20:50 -8.9 °C -11 °C 1023.9 hPa WNW 8 km/h 8 km/h 85% 0 mm 0 W/m2
20:56 -8.9 °C -11 °C 1023.9 hPa West 6.4 km/h 8 km/h 85% 0 mm 0 W/m2
21:02 -9 °C -11.1 °C 1024.3 hPa WSW 4.8 km/h 9.7 km/h 85% 0 mm 0 W/m2
21:08 -9 °C -11.1 °C 1023.9 hPa WSW 4.8 km/h 9.7 km/h 85% 0 mm 0 W/m2
21:14 -9 °C -11.1 °C 1023.9 hPa West 4.8 km/h 8 km/h 85% 0 mm 0 W/m2
21:20 -9 °C -11.1 °C 1023.9 hPa WSW 6.4 km/h 6.4 km/h 85% 0 mm 0 W/m2
21:26 -9 °C -11.1 °C 1023.9 hPa West 6.4 km/h 9.7 km/h 85% 0 mm 0 W/m2
21:32 -9 °C -11.1 °C 1023.9 hPa WNW 4.8 km/h 4.8 km/h 85% 0 mm 0 W/m2
21:38 -9.1 °C -11.1 °C 1023.9 hPa WSW 3.2 km/h 6.4 km/h 85% 0 mm 0 W/m2
21:44 -9.1 °C -11.2 °C 1023.9 hPa SW 3.2 km/h 6.4 km/h 85% 0 mm 0 W/m2
21:50 -9.1 °C -11.2 °C 1023.9 hPa WSW 4.8 km/h 4.8 km/h 85% 0 mm 0 W/m2
21:56 -9.1 °C -11.2 °C 1023.9 hPa WNW 4.8 km/h 4.8 km/h 85% 0 mm 0 W/m2
22:02 -9.1 °C -11.2 °C 1024.3 hPa West 4.8 km/h 8 km/h 85% 0 mm 0 W/m2
22:08 -9.2 °C -11.2 °C 1024.3 hPa WSW 4.8 km/h 11.3 km/h 85% 0 mm 0 W/m2
22:14 -9.2 °C -11.2 °C 1024.3 hPa SW 6.4 km/h 9.7 km/h 85% 0 mm 0 W/m2
22:20 -9.2 °C -11.2 °C 1024.3 hPa WNW 4.8 km/h 4.8 km/h 85% 0 mm 0 W/m2
22:26 -9.2 °C -11.1 °C 1024.3 hPa WSW 4.8 km/h 4.8 km/h 86% 0 mm 0 W/m2
22:32 -9.2 °C -11.1 °C 1024.3 hPa West 3.2 km/h 4.8 km/h 86% 0 mm 0 W/m2
22:38 -9.2 °C -11.1 °C 1023.9 hPa WSW 3.2 km/h 9.7 km/h 86% 0 mm 0 W/m2
22:44 -9.2 °C -11.1 °C 1023.9 hPa SW 4.8 km/h 8 km/h 86% 0 mm 0 W/m2
22:50 -9.2 °C -11.1 °C 1023.9 hPa SW 4.8 km/h 4.8 km/h 86% 0 mm 0 W/m2
22:56 -9.3 °C -11.2 °C 1023.9 hPa SW 3.2 km/h 4.8 km/h 86% 0 mm 0 W/m2
23:02 -9.3 °C -11.2 °C 1023.9 hPa West 1.6 km/h 4.8 km/h 86% 0 mm 0 W/m2
23:08 -9.3 °C -11.2 °C 1023.9 hPa WSW 3.2 km/h 4.8 km/h 86% 0 mm 0 W/m2
23:14 -9.3 °C -11.2 °C 1023.6 hPa SW 3.2 km/h 9.7 km/h 86% 0 mm 0 W/m2
23:20 -9.4 °C -11.3 °C 1023.6 hPa West 4.8 km/h 4.8 km/h 86% 0 mm 0 W/m2
23:26 -9.5 °C -11.4 °C 1023.6 hPa WSW 3.2 km/h 4.8 km/h 86% 0 mm 0 W/m2
23:32 -9.6 °C -11.4 °C 1023.6 hPa SW 4.8 km/h 6.4 km/h 86% 0 mm 0 W/m2
23:38 -9.6 °C -11.5 °C 1023.6 hPa SW 4.8 km/h 8 km/h 86% 0 mm 0 W/m2
23:44 -9.6 °C -11.5 °C 1023.6 hPa SW 4.8 km/h 6.4 km/h 86% 0 mm 0 W/m2
23:50 -9.7 °C -11.6 °C 1023.6 hPa West 3.2 km/h 3.2 km/h 86% 0 mm 0 W/m2
23:56 -9.7 °C -11.6 °C 1023.2 hPa WSW 3.2 km/h 4.8 km/h 86% 0 mm 0 W/m2
Country Meadow, Clay, NY, USA
Compliments of Weather Underground - 2 mb